IZ4UFQ-10 Weather Reports


Display with metric or nautical units.
time (UTC)temp
F
wind
direction
speed
MPH
gust
MPH
rain 1hr
in
rain 24hr
in
rain mn
in
humidity
%
barometer
mb
20260502170233 72 96 0.0 0.0 0.00 0.00 0.00 36 1020.3
20260502164232 72 104 0.0 0.0 0.00 0.00 0.00 35 1020.6
20260502163731 72 54 0.0 0.0 0.00 0.00 0.00 35 1020.6
20260502163231 72 79 0.0 0.0 0.00 0.00 0.00 35 1020.7
20260502162731 72 131 0.0 0.0 0.00 0.00 0.00 35 1020.7
20260502162230 73 124 0.0 0.0 0.00 0.00 0.00 35 1020.8
20260502161730 73 70 0.0 0.0 0.00 0.00 0.00 34 1020.8
20260502161230 73 38 0.0 0.0 0.00 0.00 0.00 34 1020.8
20260502160730 73 85 0.0 0.0 0.00 0.00 0.00 35 1020.8
20260502160229 73 93 0.0 0.0 0.00 0.00 0.00 34 1020.8
20260502152227 73 145 0.0 0.0 0.00 0.00 0.00 34 1021.2
20260502151727 73 108 0.0 0.0 0.00 0.00 0.00 34 1021.2
20260502151226 73 89 0.0 0.0 0.00 0.00 0.00 35 1021.3
20260502150726 73 64 0.0 0.0 0.00 0.00 0.00 34 1021.3
20260502150226 73 114 0.0 0.0 0.00 0.00 0.00 34 1021.3
20260502130719 73 186 0.0 0.0 0.00 0.00 0.00 33 1022.9
20260502130219 73 61 0.0 0.0 0.00 0.00 0.00 33 1023.0
20260502123718 72 126 0.0 0.0 0.00 0.00 0.00 33 1023.2
20260502123217 72 56 0.0 0.0 0.00 0.00 0.00 34 1023.2
20260502122717 72 89 0.0 0.0 0.00 0.00 0.00 33 1023.4
20260502122217 71 75 0.0 0.0 0.00 0.00 0.00 34 1023.5
20260502121716 72 72 0.0 0.0 0.00 0.00 0.00 33 1023.6
20260502121216 71 134 0.0 0.0 0.00 0.00 0.00 35 1023.6
20260502120716 71 145 0.0 0.0 0.00 0.00 0.00 34 1023.7
20260502120215 71 109 0.0 0.0 0.00 0.00 0.00 35 1023.8
20260502115715 71 151 0.0 0.0 0.00 0.00 0.00 34 1023.8
20260502115215 71 127 0.0 0.0 0.00 0.00 0.00 34 1023.9
20260502114715 71 48 0.0 0.0 0.00 0.00 0.00 34 1023.9
20260502114214 71 154 0.0 0.0 0.00 0.00 0.00 34 1024.0
20260502113714 71 174 0.0 0.0 0.00 0.00 0.00 34 1024.0
20260502113214 71 129 0.0 0.0 0.00 0.00 0.00 34 1024.1
20260502112714 71 109 0.0 0.0 0.00 0.00 0.00 34 1024.2
20260502112213 70 170 0.0 0.0 0.00 0.00 0.00 34 1024.2
20260502111713 71 108 0.0 0.0 0.00 0.00 0.00 34 1024.3
20260502111213 71 108 0.0 0.0 0.00 0.00 0.00 33 1024.4
20260502110712 71 119 0.0 0.0 0.00 0.00 0.00 34 1024.5
20260502110212 71 114 0.0 0.0 0.00 0.00 0.00 34 1024.6
20260502105712 71 114 0.0 0.0 0.00 0.00 0.00 33 1024.6
20260502105211 70 127 0.0 0.0 0.00 0.00 0.00 34 1024.7
20260502104711 70 154 0.0 0.0 0.00 0.00 0.00 33 1024.7
20260502104211 70 80 0.0 0.0 0.00 0.00 0.00 33 1024.9
20260502103711 70 132 0.0 0.0 0.00 0.00 0.00 34 1025.0
20260502103210 70 127 0.0 0.0 0.00 0.00 0.00 33 1025.1
20260502102710 69 110 0.0 0.0 0.00 0.00 0.00 34 1025.1
20260502102210 69 131 0.0 0.0 0.00 0.00 0.00 34 1025.2
20260502101709 69 144 0.0 0.0 0.00 0.00 0.00 33 1025.2
20260502101209 69 105 0.0 0.0 0.00 0.00 0.00 32 1025.3
20260502100709 69 41 0.0 0.0 0.00 0.00 0.00 32 1025.4
20260502100209 69 47 0.0 0.0 0.00 0.00 0.00 31 1025.4
20260502091206 68 329 0.0 0.0 0.00 0.00 0.00 33 1025.7
20260502090705 67 339 0.0 0.0 0.00 0.00 0.00 34 1025.9
20260502090205 67 322 0.0 0.0 0.00 0.00 0.00 34 1025.9
20260502071159 61 264 0.0 0.0 0.00 0.00 0.00 44 1026.2
20260502070659 62 263 0.0 0.0 0.00 0.00 0.00 44 1026.2
20260502070158 61 256 0.0 0.0 0.00 0.00 0.00 44 1026.3
20260502065658 61 251 0.0 0.0 0.00 0.00 0.00 44 1026.2
20260502065158 61 251 0.0 0.0 0.00 0.00 0.00 44 1026.3
20260502064657 61 251 0.0 0.0 0.00 0.00 0.00 44 1026.3
20260502064157 61 251 0.0 0.0 0.00 0.00 0.00 44 1026.3
20260502063657 61 245 0.0 0.0 0.00 0.00 0.00 43 1026.3
20260502063156 60 245 0.0 0.0 0.00 0.00 0.00 45 1026.3
20260502062656 59 245 0.0 0.0 0.00 0.00 0.00 46 1026.3
20260502062156 58 245 0.0 0.0 0.00 0.00 0.00 46 1026.3
20260502061656 58 245 0.0 0.0 0.00 0.00 0.00 46 1026.3
20260502061155 58 241 0.0 0.0 0.00 0.00 0.00 45 1026.3
20260502060655 58 253 0.0 0.0 0.00 0.00 0.00 44 1026.3
20260502060155 59 235 0.0 0.0 0.00 0.00 0.00 43 1026.4
20260502055654 59 201 0.0 0.0 0.00 0.00 0.00 44 1026.4
20260502055154 59 200 0.0 0.0 0.00 0.00 0.00 44 1026.3
20260502054654 58 200 0.0 0.0 0.00 0.00 0.00 44 1026.3
20260502054154 58 200 0.0 0.0 0.00 0.00 0.00 45 1026.2
20260502053653 58 200 0.0 0.0 0.00 0.00 0.00 45 1026.2
20260502053153 57 200 0.0 0.0 0.00 0.00 0.00 45 1026.2
20260502052653 56 200 0.0 0.0 0.00 0.00 0.00 47 1026.2
20260502052152 56 200 0.0 0.0 0.00 0.00 0.00 47 1026.2
20260502051652 55 200 0.0 0.0 0.00 0.00 0.00 47 1026.2
20260502051152 55 197 0.0 0.0 0.00 0.00 0.00 47 1026.1
20260502050652 55 216 0.0 0.0 0.00 0.00 0.00 48 1026.0
20260502050151 54 204 0.0 0.0 0.00 0.00 0.00 48 1026.0
20260502045651 54 204 0.0 0.0 0.00 0.00 0.00 48 1025.9
20260502045151 53 204 0.0 0.0 0.00 0.00 0.00 49 1025.9
20260502044650 53 203 0.0 0.0 0.00 0.00 0.00 49 1025.9
20260502044150 53 176 0.0 0.0 0.00 0.00 0.00 49 1025.9
20260502043650 53 231 0.0 0.0 0.00 0.00 0.00 49 1025.9
20260502043150 53 202 0.0 0.0 0.00 0.00 0.00 49 1025.9
20260502042649 53 212 0.0 0.0 0.00 0.00 0.00 49 1025.9
20260502042149 53 217 0.0 0.0 0.00 0.00 0.00 49 1025.9
20260502041649 53 224 0.0 0.0 0.00 0.00 0.00 50 1026.0
20260502041149 52 210 0.0 0.0 0.00 0.00 0.00 50 1026.0
20260502040648 52 206 0.0 0.0 0.00 0.00 0.00 50 1026.0
20260502040148 52 245 0.0 0.0 0.00 0.00 0.00 50 1026.0
20260502035648 52 218 0.0 0.0 0.00 0.00 0.00 50 1026.0
20260502035147 52 231 0.0 0.0 0.00 0.00 0.00 50 1026.0
20260502034647 53 212 0.0 0.0 0.00 0.00 0.00 49 1026.0
20260502034147 53 205 0.0 0.0 0.00 0.00 0.00 49 1026.0
20260502033646 53 247 0.0 0.0 0.00 0.00 0.00 49 1025.9
20260502033146 53 220 0.0 0.0 0.00 0.00 0.00 49 1026.0
20260502032646 53 220 0.0 0.0 0.00 0.00 0.00 49 1025.9
20260502032146 53 220 0.0 0.0 0.00 0.00 0.00 49 1025.8
20260502031645 53 217 0.0 0.0 0.00 0.00 0.00 49 1025.8
20260502031145 53 194 0.0 0.0 0.00 0.00 0.00 49 1025.9
20260502030645 53 193 0.0 0.0 0.00 0.00 0.00 49 1025.9
20260502030145 53 201 0.0 0.0 0.00 0.00 0.00 49 1026.0
20260502025644 53 220 0.0 0.0 0.00 0.00 0.00 49 1026.0
20260502025144 53 216 0.0 0.0 0.00 0.00 0.00 49 1026.0
20260502024644 53 243 0.0 0.0 0.00 0.00 0.00 49 1026.0
20260502024143 53 205 0.0 0.0 0.00 0.00 0.00 49 1026.0
20260502023643 53 217 0.0 0.0 0.00 0.00 0.00 49 1026.0
20260502023143 53 216 0.0 0.0 0.00 0.00 0.00 49 1026.0
20260502022642 53 209 0.0 0.0 0.00 0.00 0.00 49 1026.0
20260502022142 53 201 0.0 0.0 0.00 0.00 0.00 49 1026.0
20260502021642 53 212 0.0 0.0 0.00 0.00 0.00 49 1026.1
20260502021142 53 209 0.0 0.0 0.00 0.00 0.00 48 1026.1
20260502020641 53 232 0.0 0.0 0.00 0.00 0.00 48 1026.1
20260502020141 53 226 0.0 0.0 0.00 0.00 0.00 48 1026.1
20260502015641 53 213 0.0 0.0 0.00 0.00 0.00 49 1026.0
20260502015140 53 203 0.0 0.0 0.00 0.00 0.00 49 1026.1
20260502014640 53 212 0.0 0.0 0.00 0.00 0.00 50 1026.1
20260502014140 53 239 0.0 0.0 0.00 0.00 0.00 50 1026.1
20260502013640 53 218 0.0 0.0 0.00 0.00 0.00 50 1026.1
20260502013139 53 206 0.0 0.0 0.00 0.00 0.00 49 1026.1
20260502012639 53 216 0.0 0.0 0.00 0.00 0.00 49 1026.1
20260502012139 53 210 0.0 0.0 0.00 0.00 0.00 48 1026.2
20260502011638 53 217 0.0 0.0 0.00 0.00 0.00 48 1026.1
20260502011138 53 211 0.0 0.0 0.00 0.00 0.00 48 1026.1
20260502010638 53 208 0.0 0.0 0.00 0.00 0.00 48 1026.2
20260502010138 53 204 0.0 0.0 0.00 0.00 0.00 48 1026.2
20260502005637 54 210 0.0 0.0 0.00 0.00 0.00 48 1026.2
20260502005137 54 212 0.0 0.0 0.00 0.00 0.00 48 1026.2
20260502004637 54 212 0.0 0.0 0.00 0.00 0.00 48 1026.2
20260502004136 54 214 0.0 0.0 0.00 0.00 0.00 48 1026.2
20260502003636 54 214 0.0 0.0 0.00 0.00 0.00 48 1026.2
20260502003136 54 223 0.0 0.0 0.00 0.00 0.00 48 1026.2
20260502002635 54 223 0.0 0.0 0.00 0.00 0.00 48 1026.3
20260502002135 54 220 0.0 0.0 0.00 0.00 0.00 48 1026.3
20260502001635 54 220 0.0 0.0 0.00 0.00 0.00 48 1026.3
20260502001135 54 213 0.0 0.0 0.00 0.00 0.00 48 1026.4
20260502000634 54 212 0.0 0.0 0.00 0.00 0.00 48 1026.5
20260502000134 54 212 0.0 0.0 0.00 0.00 0.00 48 1026.5
20260501235634 54 212 0.0 0.0 0.00 0.00 0.00 47 1026.5
20260501235133 54 213 0.0 0.0 0.00 0.00 0.00 47 1026.5
20260501234633 54 222 0.0 0.0 0.00 0.00 0.00 47 1026.5
20260501234133 54 220 0.0 0.0 0.00 0.00 0.00 47 1026.5
20260501233633 54 228 0.0 0.0 0.00 0.00 0.00 46 1026.6
20260501233132 55 219 0.0 0.0 0.00 0.00 0.00 46 1026.5
20260501232632 55 218 0.0 0.0 0.00 0.00 0.00 46 1026.6
20260501232132 55 233 0.0 0.0 0.00 0.00 0.00 46 1026.5
20260501231632 55 237 0.0 0.0 0.00 0.00 0.00 46 1026.5
20260501231132 55 224 0.0 0.0 0.00 0.00 0.00 46 1026.5
20260501230631 55 199 0.0 0.0 0.00 0.00 0.00 46 1026.5
20260501230131 55 239 0.0 0.0 0.00 0.00 0.00 46 1026.6
20260501225630 55 218 0.0 0.0 0.00 0.00 0.00 46 1026.6
20260501225130 55 209 0.0 0.0 0.00 0.00 0.00 46 1026.6
20260501224630 55 211 0.0 0.0 0.00 0.00 0.00 46 1026.6
20260501224130 55 196 0.0 0.0 0.00 0.00 0.00 46 1026.5
20260501223629 55 210 0.0 0.0 0.00 0.00 0.00 46 1026.5
20260501223129 55 192 0.0 0.0 0.00 0.00 0.00 46 1026.5
20260501222629 55 216 0.0 0.0 0.00 0.00 0.00 45 1026.5
20260501222128 55 208 0.0 0.0 0.00 0.00 0.00 45 1026.4
20260501221628 55 204 0.0 0.0 0.00 0.00 0.00 44 1026.4
20260501221128 55 209 0.0 0.0 0.00 0.00 0.00 44 1026.4
20260501220627 56 236 0.0 0.0 0.00 0.00 0.00 44 1026.4
20260501220127 56 222 0.0 0.0 0.00 0.00 0.00 44 1026.3
20260501215627 56 215 0.0 0.0 0.00 0.00 0.00 44 1026.3
20260501215127 55 206 0.0 0.0 0.00 0.00 0.00 44 1026.3
20260501214626 55 212 0.0 0.0 0.00 0.00 0.00 44 1026.2
20260501214126 55 212 0.0 0.0 0.00 0.00 0.00 44 1026.2
20260501213626 55 204 0.0 0.0 0.00 0.00 0.00 44 1026.2
20260501213125 55 207 0.0 0.0 0.00 0.00 0.00 45 1026.1
20260501212625 55 206 0.0 0.0 0.00 0.00 0.00 45 1026.1
20260501212125 55 206 0.0 0.0 0.00 0.00 0.00 45 1026.1
20260501211625 55 206 0.0 0.0 0.00 0.00 0.00 45 1026.1
20260501211124 55 205 0.0 0.0 0.00 0.00 0.00 45 1026.0
20260501210624 55 205 0.0 0.0 0.00 0.00 0.00 46 1026.0
20260501210124 55 183 0.0 0.0 0.00 0.00 0.00 47 1026.0
20260501205623 55 183 0.0 0.0 0.00 0.00 0.00 47 1026.0
20260501205123 55 181 0.0 0.0 0.00 0.00 0.00 47 1025.9
20260501204623 55 133 0.0 0.0 0.00 0.00 0.00 48 1025.9
20260501204123 55 133 0.0 0.0 0.00 0.00 0.00 49 1025.9
20260501203622 54 133 0.0 0.0 0.00 0.00 0.00 49 1025.9
20260501203122 54 133 0.0 0.0 0.00 0.00 0.00 49 1025.9
20260501202622 53 133 0.0 0.0 0.00 0.00 0.00 51 1025.9
20260501202121 53 133 0.0 0.0 0.00 0.00 0.00 53 1025.9
20260501201621 52 133 0.0 0.0 0.00 0.00 0.00 55 1025.8
20260501201121 52 133 0.0 0.0 0.00 0.00 0.00 55 1025.7
20260501200621 52 132 0.0 0.0 0.00 0.00 0.00 56 1025.8
20260501200120 52 133 0.0 0.0 0.00 0.00 0.00 56 1025.8
20260501195620 52 133 0.0 0.0 0.00 0.00 0.00 56 1025.8
20260501195120 53 133 0.0 0.0 0.00 0.00 0.00 56 1025.7
20260501194619 53 133 0.0 0.0 0.00 0.00 0.00 56 1025.7
20260501194119 53 133 0.0 0.0 0.00 0.00 0.00 55 1025.6
20260501193619 53 133 0.0 0.0 0.00 0.00 0.00 54 1025.5
20260501193119 53 133 0.0 0.0 0.00 0.00 0.00 54 1025.5
20260501192618 54 133 0.0 0.0 0.00 0.00 0.00 54 1025.4
20260501192118 54 133 0.0 0.0 0.00 0.00 0.00 53 1025.5
20260501191618 54 133 0.0 0.0 0.00 0.00 0.00 53 1025.5
20260501191117 54 133 0.0 0.0 0.00 0.00 0.00 53 1025.4
20260501190617 55 133 0.0 0.0 0.00 0.00 0.00 52 1025.4
20260501190117 55 133 0.0 0.0 0.00 0.00 0.00 52 1025.4
20260501185616 55 133 0.0 0.0 0.00 0.00 0.00 51 1025.4
20260501185116 56 133 0.0 0.0 0.00 0.00 0.00 50 1025.3
20260501184616 56 133 0.0 0.0 0.00 0.00 0.00 49 1025.2
20260501184116 57 132 0.0 0.0 0.00 0.00 0.00 48 1025.2
20260501183615 57 132 0.0 0.0 0.00 0.00 0.00 47 1025.1
20260501183115 58 133 0.0 0.0 0.00 0.00 0.00 46 1025.1
20260501182615 59 133 0.0 0.0 0.00 0.00 0.00 46 1025.0
20260501182115 59 133 0.0 0.0 0.00 0.00 0.00 43 1025.1
20260501181614 60 132 0.0 0.0 0.00 0.00 0.00 41 1025.0
20260501181114 61 133 0.0 0.0 0.00 0.00 0.00 41 1025.0
20260501180614 62 133 0.0 0.0 0.00 0.00 0.00 39 1025.0
20260501180113 63 132 0.0 0.0 0.00 0.00 0.00 37 1024.9
20260501175613 63 133 0.0 0.0 0.00 0.00 0.00 33 1024.9
20260501175113 63 133 0.0 0.0 0.00 0.00 0.00 32 1024.9